Voltar ao catálogo

ONEWEB-0033

AtivoComunicaçõesPO
NORAD 45142·PAYLOAD·🇬🇧 United Kingdom

Lançado Feb 6, 2020 de Baikonur Cosmodrome

Loading…

Próximas Passagens (próximas 24 horas)

TLE

AtualizadoSource: CelesTrak SupGP

Época: Sep 14, 2026, 07:40 UTC

1 45142C 20008M   26257.31995788  .00000847  00000+0  24301-2 0  2575
2 45142  87.8914  18.5264 0001415  85.3406 301.5432 13.10378745    16

Acompanhe ONEWEB-0033 em tempo real com AllMySat

Download on the App Store